Regional Weather Roundup
Issued by NWS

Home | Current Version | Previous Version | Graphics & Text | Print | Product List | Glossary On
Versions: 1 2 3 4 5 6 7 8 9 10 11 12 13 14 15 16 17 18 19 20 21 22 23 24 25 26 27 28 29 30 31 32 33 34 35 36 37 38 39 40 41 42 43 44 45 46 47 48 49 50
000
ASUS43 KMKX 180221
RWRWI

WISCONSIN REGIONAL WEATHER ROUNDUP
NATIONAL WEATHER SERVICE MILWAUKEE/SULLIVAN WI
900 PM CDT THU AUG 17 2017

NOTE: "FAIR" INDICATES FEW OR NO CLOUDS BELOW 12,000 FEET WITH NO
SIGNIFICANT WEATHER AND/OR OBSTRUCTIONS TO VISIBILITY.

WIZ001-002-006>008-014>016-023>028-180300-
NORTHWEST WISCONSIN

CITY           SKY/WX    TMP DP  RH WIND       PRES   REMARKS
SUPERIOR ARPT    N/A     64  60  86 NW6       29.77R
ASHLAND        CLOUDY    63  61  93 NW7       29.73R
HAYWARD        CLOUDY    63  60  90 VRB3      29.77R
SIREN          CLOUDY    64  60  88 NW7       29.80R
CUMBERLAND     CLOUDY    61  59  94 NW12      29.79R
RICE LAKE      CLOUDY    63  61  92 NW9       29.79R
CHETEK         CLOUDY    63  62  97 NW9       29.77R
LADYSMITH      CLOUDY    63  62  95 NW10      29.76R FOG
EAU CLAIRE     CLOUDY    64  62  93 NW9       29.76R
MENOMONIE      CLOUDY    67  61  83 NW13      29.78R
NEW RICHMOND   CLOUDY    66  62  85 NW8       29.80R
OSCEOLA        CLOUDY    67  61  79 NW8       29.83R
$$

WIZ003>005-009-010-017-018-180300-
NORTH CENTRAL WISCONSIN

CITY           SKY/WX    TMP DP  RH WIND       PRES   REMARKS
MANITOWISH WTR CLOUDY    58  58 100 NW13G20   29.69R
ARBOR VITAE    CLOUDY    62  59  90 NW13G20   29.68R
WOODRUFF       CLOUDY    62  59  90 NW13G20   29.68R
RHINELANDER    CLOUDY    61  58  90 NW13G21   29.68R
EAGLE RIVER    CLOUDY    59  58  98 NW13G23   29.65R
LAND O LAKES   CLOUDY    59  58  96 NW12G18   29.66R
PHILLIPS       CLOUDY    60  60 100 NW7       29.71R
TOMAHAWK         N/A     60  57  89 NW6       29.70R
MEDFORD        CLOUDY    61  59  94 NW8G16    29.71R FOG
MERRILL        CLOUDY    61  61 100 NW8       29.69R
$$

WIZ029-030-035-036-043>047-180300-
CENTRAL WISCONSIN

CITY           SKY/WX    TMP DP  RH WIND       PRES   REMARKS
WAUSAU         CLOUDY    64  58  80 NW12      29.68R
MOSINEE        CLOUDY    64  61  88 NW18G24   29.69R
MARSHFIELD     CLOUDY    63  60  90 NW14G21   29.72R
STEVENS POINT  CLOUDY    63  62  94 W8G18     29.69R
WAUPACA        CLOUDY    68  63  83 W15       29.67R
WAUTOMA        CLOUDY    65  62  90 W14G21    29.71R
WISC RAPIDS    LGT RAIN  63  62  97 W10       29.73R
CAMP DOUGLAS   CLOUDY    66  60  81 W13G21    29.74R
$$

WIZ011>013-019>022-031-037>040-048>050-180300-
NORTHEAST WISCONSIN

CITY           SKY/WX    TMP DP  RH WIND       PRES   REMARKS
ANTIGO         DRIZZLE   62  61  96 NW14G24   29.65R
SHAWANO        CLOUDY    68  65  90 W12G17    29.61R
OCONTO         MOCLDY    69  67  94 W12G17    29.56R
STURGEON BAY   CLOUDY    70  67  90 SW16G22   29.56R
GREEN BAY      CLOUDY    67  67 100 W14G23    29.62R
MANITOWOC      CLOUDY    70  65  84 W14       29.63R
APPLETON       CLOUDY    66  64  94 W14       29.64R
CLINTONVILLE   CLOUDY    66  63  88 W13G20    29.63R
OSHKOSH        CLOUDY    67  62  84 W12G20    29.67R
$$

WIZ032>034-041-042-053>061-180300-
SOUTHWEST WISCONSIN

CITY           SKY/WX    TMP DP  RH WIND       PRES   REMARKS
LA CROSSE      CLOUDY    69  65  86 N8        29.77R
SPARTA         CLOUDY    67  61  81 NW12G26   29.77R
VIROQUA        CLOUDY    65  64  96 NW3       29.78R
BOSCOBEL       CLOUDY    72  65  78 W8        29.77R
PRAIRIE DU CHI PTCLDY    71  62  74 W7        29.78R
PLATTEVILLE    MOCLDY    69  68  97 W12       29.80R
$$

WIZ056-057-062-063-064-067-068-180300-
SOUTH CENTRAL WISCONSIN

CITY           SKY/WX    TMP DP  RH WIND       PRES   REMARKS
REEDSBURG      CLOUDY    67  63  85 W13       29.75R
BARABOO/DELLS  CLOUDY    66  60  79 W9        29.75R
LONE ROCK      CLOUDY    68  64  87 W7        29.76R
MINERAL POINT  MOCLDY    70  68  94 W9        29.78R
MADISON        CLOUDY    68  62  81 W7        29.74R
MIDDLETON      CLOUDY    68  64  85 W6        29.76R
WATERTOWN      CLOUDY    66  66 100 W10G20    29.73R
MONROE         CLOUDY    68  63  83 SW10G18   29.78R
JANESVILLE     CLOUDY    72  63  73 W14       29.76R
$$

WIZ051-052-058>065-066-070>072-180300-
SOUTHEAST WISCONSIN

CITY           SKY/WX    TMP DP  RH WIND       PRES   REMARKS
MILWAUKEE      MOCLDY    73  65  75 W14G28    29.70R
WAUKESHA       LGT RAIN  68  63  83 W14G21    29.73R FOG
MILWAUKEE/TIMM CLOUDY    72  63  73 W12G18    29.70R
RACINE         PTCLDY    73  64  73 W10       29.72R
KENOSHA        CLOUDY    73  63  70 W23G30    29.73R
FOND DU LAC    CLOUDY    69  60  73 W22G30    29.68R
SHEBOYGAN      CLOUDY    71  66  84 W17G29    29.65R
WEST BEND      CLOUDY    66  64  94 W14G20    29.69R FOG
JUNEAU         CLOUDY    65  63  91 W12G17    29.73R
$$

LSZ147-162-180300-
LAKE SUPERIOR

STATION/POSITION TIME  TEMP    WIND        PRES    WAVE
                       AIR SEA DIR/SP/G            HT/PER
                 (UTC) (F)     (DEG/KT/KT) (MB)    (FT/S)
W MID LAKE BUOY  0050   60 60  300/ 14/ 17 1003.2R   5/ 6
DEVILS ISLAND    0100   63     320/ 16/ 17 1005.5R
SAXON HARBOR     0140   65     310/ 10/ 12 1005.4R
$$

LMZ867-665-643>646-180300-
LAKE MICHIGAN

STATION/POSITION TIME  TEMP    WIND        PRES    WAVE
                       AIR SEA DIR/SP/G            HT/PER
                 (UTC) (F)     (DEG/KT/KT) (MB)    (FT/S)
S GREEN BAY BUOY 0200   71 72  230/ 17/ 23 1000.8
N MID LAKE BUOY  0050   69 68  190/ 16/ 19 1000.4F   5/ 6
NORTHPORT PIER   0140   69     290/  2/  4 1000.0S
KEWAUNEE LAKESHO 0154   71     250/ 14/ 18 1001.2R
SHEBOYGAN LAKESH 0100   74     250/ 17/ 19 1002.5R
PORT WASHINGTON  0130   73     250/  8/ 15 1005.4R
ATWATER BUOY     0109   73 69  230/ 16/ 21 1005.3R
MILWAUKEE LAKESH 0200   72     260/ 16/ 22   N/A
S MID LAKE BUOY  0050   73 71  300/ 12/ 16 1005.4R   3/ 5
KENOSHA   LAKESH 0100   76     260/ 18/ 23 1005.8
$$

TC  - TEMPERATURE IN CELSIUS
VSB - VISIBILITY IN STATUTE MILES
WCI - WIND CHILL INDEX
HX  - HEAT INDEX





USA.gov is the U.S. government's official web portal to all federal, state and local government web resources and services.